KE7OZA Weather Reports


time (UTC)temp
C
wind
direction
speed
KPH
gust
KPH
rain 1hr
cm
rain 24hr
cm
rain mn
cm
humidity
%
barometer
mb
20260507154059 10 298 1.6 14.5 0.00 0.00 0.00 62 1017.5
20260507153559 10 239 1.6 12.9 0.00 0.00 0.00 63 1017.6
20260507153114 10 216 1.6 12.9 0.00 0.00 0.00 64 1017.5
20260507152558 10 352 3.2 12.9 0.00 0.00 0.00 63 1017.4
20260507152058 10 199 1.6 6.4 0.00 0.00 0.00 64 1017.5
20260507151600 10 259 1.6 8.0 0.00 0.00 0.00 64 1017.3
20260507151058 10 223 3.2 11.3 0.00 0.00 0.00 65 1017.2
20260507150558 9 245 3.2 11.3 0.00 0.00 0.00 65 1017.3
20260507145558 9 251 4.8 14.5 0.00 0.00 0.00 65 1017.3
20260507145102 9 250 4.8 14.5 0.00 0.00 0.00 66 1017.3
20260507144558 8 228 3.2 14.5 0.00 0.00 0.00 66 1017.2
20260507144058 8 237 4.8 9.7 0.00 0.00 0.00 67 1017.2
20260507143600 8 245 4.8 9.7 0.00 0.00 0.00 67 1017.3
20260507143102 8 318 3.2 9.7 0.00 0.00 0.00 69 1017.2
20260507142558 8 243 3.2 8.0 0.00 0.00 0.00 68 1017.1
20260507142058 8 244 3.2 14.5 0.00 0.00 0.00 69 1017.1
20260507141555 7 241 3.2 14.5 0.00 0.00 0.00 69 1017.1
20260507141058 7 245 1.6 9.7 0.00 0.00 0.00 69 1016.9
20260507140558 7 242 3.2 9.7 0.00 0.00 0.00 69 1016.8
20260507140101 7 238 3.2 8.0 0.00 0.00 0.00 69 1016.9
20260507135559 7 260 3.2 9.7 0.00 0.00 0.00 69 1017.0
20260507135102 7 259 3.2 11.3 0.00 0.00 0.00 68 1017.0
20260507134559 7 256 3.2 11.3 0.00 0.00 0.00 69 1016.9
20260507134057 7 273 1.6 9.7 0.00 0.00 0.00 70 1017.0
20260507133558 7 214 3.2 9.7 0.00 0.00 0.00 69 1016.8
20260507133058 7 246 3.2 14.5 0.00 0.00 0.00 69 1016.7
20260507132559 7 236 3.2 14.5 0.00 0.00 0.00 70 1016.6
20260507132058 7 246 3.2 19.3 0.00 0.00 0.00 70 1016.7
20260507131556 7 235 3.2 19.3 0.00 0.00 0.00 71 1016.7
20260507131058 6 194 1.6 14.5 0.00 0.00 0.00 72 1016.8
20260507130559 6 192 4.8 14.5 0.00 0.00 0.00 71 1016.7
20260507130107 6 145 3.2 19.3 0.00 0.00 0.00 73 1016.7
20260507125558 6 224 4.8 19.3 0.00 0.00 0.00 73 1016.8
20260507125057 6 266 3.2 16.1 0.00 0.00 0.00 73 1016.8
20260507124620 6 247 3.2 19.3 0.00 0.00 0.00 73 1016.7
20260507124059 6 0 3.2 19.3 0.00 0.00 0.00 74 1016.9
20260507123559 6 216 4.8 19.3 0.00 0.00 0.00 74 1017.0
20260507123108 6 257 3.2 17.7 0.00 0.00 0.00 74 1017.1
20260507122559 6 201 4.8 29.0 0.00 0.00 0.00 75 1017.1
20260507122058 7 10 4.8 29.0 0.00 0.00 0.00 75 1017.1
20260507121602 7 162 8.0 29.0 0.00 0.00 0.00 74 1017.2
20260507121059 7 226 4.8 22.5 0.00 0.00 0.00 75 1017.1
20260507120558 7 140 1.6 29.0 0.00 0.00 0.00 75 1017.1
20260507120057 7 72 4.8 29.0 0.00 0.00 0.00 74 1017.2
20260507115558 7 222 6.4 20.9 0.00 0.00 0.00 74 1017.3
20260507115058 7 107 4.8 29.0 0.00 0.00 0.00 75 1017.3
20260507114602 7 101 6.4 29.0 0.00 0.00 0.00 76 1017.3
20260507114058 7 162 8.0 29.0 0.00 0.00 0.00 75 1017.4
20260507113601 7 277 4.8 20.9 0.00 0.00 0.00 76 1017.3
20260507113057 7 241 4.8 20.9 0.00 0.00 0.00 76 1017.3
20260507112600 7 320 6.4 20.9 0.00 0.00 0.00 76 1017.4
20260507112102 7 205 4.8 20.9 0.00 0.00 0.00 76 1017.4
20260507111558 7 222 1.6 24.1 0.00 0.00 0.00 76 1017.6
20260507111059 7 173 9.7 24.1 0.00 0.00 0.00 76 1017.4
20260507110559 7 192 6.4 24.1 0.00 0.00 0.00 76 1017.3
20260507110056 7 41 4.8 29.0 0.00 0.00 0.00 76 1017.3
20260507105559 7 147 6.4 29.0 0.00 0.00 0.00 76 1017.4
20260507105058 7 251 8.0 27.4 0.00 0.00 0.00 76 1017.3
20260507104558 7 152 6.4 22.5 0.00 0.00 0.00 76 1017.2
20260507104058 7 272 6.4 22.5 0.00 0.00 0.00 76 1017.4
20260507103558 7 179 3.2 20.9 0.00 0.00 0.00 76 1017.5
20260507103109 7 179 6.4 20.9 0.00 0.00 0.00 76 1017.3
20260507102559 7 127 3.2 25.7 0.00 0.00 0.00 75 1017.2
20260507102059 8 116 8.0 25.7 0.00 0.00 0.00 75 1017.1
20260507101601 8 157 6.4 25.7 0.00 0.00 0.00 76 1017.0
20260507101058 8 31 6.4 29.0 0.00 0.00 0.00 76 1017.2
20260507100558 8 279 9.7 29.0 0.00 0.00 0.00 75 1017.2
20260507100111 8 246 4.8 25.7 0.00 0.00 0.00 76 1017.3
20260507095601 8 234 12.9 25.7 0.00 0.00 0.00 75 1017.1
20260507095058 8 216 6.4 17.7 0.00 0.00 0.00 75 1017.3
20260507094559 8 231 6.4 27.4 0.00 0.00 0.00 74 1017.2
20260507094059 8 255 8.0 27.4 0.00 0.00 0.00 73 1017.2
20260507093558 8 214 9.7 25.7 0.00 0.00 0.00 73 1017.2
20260507093100 8 201 8.0 29.0 0.00 0.00 0.00 74 1017.2
20260507092558 8 191 8.0 29.0 0.00 0.00 0.00 74 1017.4
20260507092100 8 187 4.8 22.5 0.00 0.00 0.00 75 1017.2
20260507091558 8 276 6.4 22.5 0.00 0.00 0.00 76 1017.0
20260507091058 8 331 3.2 19.3 0.00 0.00 0.00 77 1017.2
20260507090559 8 234 4.8 20.9 0.00 0.00 0.00 77 1017.1
20260507090056 8 0 3.2 20.9 0.00 0.00 0.00 78 1017.1
20260507085558 8 264 4.8 16.1 0.00 0.00 0.00 78 1017.1
20260507085058 8 153 4.8 22.5 0.00 0.00 0.00 78 1017.0
20260507084600 8 175 3.2 22.5 0.00 0.00 0.00 79 1017.0
20260507084058 8 74 6.4 22.5 0.00 0.00 0.00 78 1016.8
20260507083559 8 216 6.4 25.7 0.00 0.00 0.00 79 1016.6
20260507083110 8 139 6.4 25.7 0.00 0.00 0.00 79 1016.6
20260507082559 8 141 4.8 17.7 0.00 0.00 0.00 78 1016.5
20260507082058 8 176 6.4 32.2 0.00 0.00 0.00 78 1016.5
20260507081601 8 340 3.2 32.2 0.00 0.00 0.00 77 1016.5
20260507081059 8 268 8.0 32.2 0.00 0.00 0.00 77 1016.5
20260507080557 8 208 4.8 20.9 0.00 0.00 0.00 77 1016.6
20260507080057 8 268 3.2 20.9 0.00 0.00 0.00 76 1016.7
20260507075558 8 210 3.2 22.5 0.00 0.00 0.00 76 1016.7
20260507075058 8 243 4.8 22.5 0.00 0.00 0.00 75 1017.0
20260507074611 8 227 6.4 22.5 0.00 0.00 0.00 75 1017.0
20260507074057 8 239 3.2 22.5 0.00 0.00 0.00 75 1017.1
20260507073600 8 265 6.4 22.5 0.00 0.00 0.00 74 1017.0
20260507073102 8 207 4.8 24.1 0.00 0.00 0.00 74 1017.0
20260507072559 8 186 4.8 24.1 0.00 0.00 0.00 74 1017.1
20260507072058 8 10 3.2 19.3 0.00 0.00 0.00 74 1017.1
20260507071557 8 232 4.8 19.3 0.00 0.00 0.00 74 1017.1
20260507071058 8 156 4.8 16.1 0.00 0.00 0.00 74 1017.1
20260507070558 8 288 3.2 27.4 0.00 0.00 0.00 74 1017.3
20260507065559 8 149 1.6 20.9 0.00 0.00 0.00 75 1017.3
20260507065058 8 76 3.2 20.9 0.00 0.00 0.00 75 1017.3
20260507064602 8 186 3.2 16.1 0.00 0.00 0.00 76 1017.3
20260507064058 8 254 4.8 24.1 0.00 0.00 0.00 76 1017.4
20260507063557 8 200 3.2 24.1 0.00 0.00 0.00 77 1017.3
20260507063100 8 92 4.8 17.7 0.00 0.00 0.00 77 1017.4
20260507062559 8 243 3.2 16.1 0.00 0.00 0.00 77 1017.4
20260507062059 8 123 3.2 20.9 0.00 0.00 0.00 77 1017.3
20260507061559 8 201 3.2 20.9 0.00 0.00 0.00 77 1017.4
20260507061058 8 166 3.2 27.4 0.00 0.00 0.00 77 1017.5
20260507060558 8 329 4.8 27.4 0.00 0.00 0.00 77 1017.6
20260507060110 8 139 3.2 27.4 0.00 0.00 0.00 78 1017.6
20260507055558 8 328 3.2 27.4 0.00 0.00 0.00 78 1017.7
20260507055059 8 115 4.8 27.4 0.00 0.00 0.00 78 1017.8
20260507054558 8 356 1.6 17.7 0.00 0.00 0.00 79 1017.8
20260507054058 8 95 3.2 17.7 0.00 0.00 0.00 79 1017.8
20260507053558 8 252 3.2 20.9 0.00 0.00 0.00 79 1017.8
20260507053059 8 220 1.6 20.9 0.00 0.00 0.00 79 1017.8
20260507052600 8 178 8.0 20.9 0.00 0.00 0.00 78 1017.8
20260507052059 8 174 1.6 19.3 0.00 0.00 0.00 78 1017.9
20260507051601 8 92 3.2 19.3 0.00 0.00 0.00 79 1018.0
20260507051059 9 149 1.6 9.7 0.00 0.00 0.00 78 1018.0
20260507050603 9 313 1.6 12.9 0.00 0.00 0.00 78 1018.0
20260507050100 9 288 1.6 12.9 0.00 0.00 0.00 77 1018.1
20260507045601 9 175 4.8 16.1 0.00 0.00 0.00 77 1018.1
20260507045059 9 0 1.6 17.7 0.00 0.00 0.00 77 1018.0
20260507044558 9 237 3.2 17.7 0.00 0.00 0.00 77 1018.1
20260507044102 9 237 1.6 17.7 0.00 0.00 0.00 77 1018.1
20260507043558 9 232 1.6 19.3 0.00 0.00 0.00 77 1018.1
20260507043058 9 273 3.2 19.3 0.00 0.00 0.00 76 1018.2
20260507042559 9 206 3.2 19.3 0.00 0.00 0.00 77 1018.0
20260507042059 9 293 4.8 16.1 0.00 0.00 0.00 76 1018.1
20260507041557 9 341 3.2 16.1 0.00 0.00 0.00 77 1018.0
20260507041058 10 177 3.2 12.9 0.00 0.00 0.00 76 1018.1
20260507040602 10 181 3.2 17.7 0.00 0.00 0.00 76 1018.1
20260507040059 10 220 3.2 17.7 0.00 0.00 0.00 76 1018.2
20260507035559 10 201 4.8 24.1 0.00 0.00 0.00 76 1018.1
20260507035059 10 234 4.8 24.1 0.00 0.00 0.00 75 1018.1
20260507034558 10 288 1.6 14.5 0.00 0.00 0.00 75 1018.0
20260507034058 10 245 3.2 17.7 0.00 0.00 0.00 75 1017.9
20260507033558 10 0 1.6 17.7 0.00 0.00 0.00 74 1017.9
20260507033058 10 127 6.4 17.7 0.00 0.00 0.00 74 1017.8
20260507032601 10 224 1.6 17.7 0.00 0.00 0.00 74 1017.8
20260507032100 10 126 3.2 17.7 0.00 0.00 0.00 73 1017.6
20260507031557 10 278 3.2 17.7 0.00 0.00 0.00 73 1017.6
20260507031103 10 170 3.2 11.3 0.00 0.00 0.00 72 1017.7
20260507030559 10 99 3.2 14.5 0.00 0.00 0.00 72 1017.6
20260507030059 11 192 3.2 14.5 0.00 0.00 0.00 72 1017.6
20260507025602 11 237 3.2 14.5 0.00 0.00 0.00 72 1017.6
20260507025058 11 339 1.6 17.7 0.00 0.00 0.00 71 1017.6
20260507024618 11 145 3.2 17.7 0.00 0.00 0.00 70 1017.5
20260507024059 11 224 4.8 17.7 0.00 0.00 0.00 70 1017.5
20260507023602 11 191 3.2 17.7 0.00 0.00 0.00 69 1017.3
20260507023057 11 75 3.2 17.7 0.00 0.00 0.00 69 1017.2
20260507022558 11 189 3.2 11.3 0.00 0.00 0.00 69 1017.1
20260507022058 11 186 3.2 12.9 0.00 0.00 0.00 69 1017.1
20260507021557 11 179 1.6 17.7 0.00 0.00 0.00 69 1017.1
20260507021059 11 214 4.8 17.7 0.00 0.00 0.00 69 1017.1
20260507020559 11 245 3.2 14.5 0.00 0.00 0.00 69 1017.2
20260507020109 11 218 4.8 14.5 0.00 0.00 0.00 69 1017.3
20260507015558 11 208 4.8 14.5 0.00 0.00 0.00 69 1017.2
20260507015055 12 195 4.8 14.5 0.00 0.00 0.00 68 1017.1
20260507014606 12 0 3.2 19.3 0.00 0.00 0.00 67 1017.1
20260507014058 12 241 3.2 19.3 0.00 0.00 0.00 66 1017.2
20260507013557 12 209 4.8 19.3 0.00 0.00 0.00 66 1017.2
20260507013058 12 199 4.8 16.1 0.00 0.00 0.00 65 1017.3
20260507012559 13 207 3.2 12.9 0.00 0.00 0.00 64 1017.1
20260507012058 13 255 3.2 29.0 0.00 0.00 0.00 64 1017.0
20260507011557 13 249 6.4 29.0 0.00 0.00 0.00 63 1017.0
20260507011058 13 203 4.8 12.9 0.00 0.00 0.00 62 1016.7
20260507010558 13 244 6.4 20.9 0.00 0.00 0.00 62 1016.9
20260507010056 13 233 6.4 24.1 0.00 0.00 0.00 61 1016.7
20260507005558 14 248 6.4 32.2 0.00 0.00 0.00 61 1016.6
20260507005058 14 242 8.0 32.2 0.00 0.00 0.00 60 1016.5
20260507004557 14 244 6.4 25.7 0.00 0.00 0.00 59 1016.6
20260507004058 15 251 4.8 25.7 0.00 0.00 0.00 59 1016.5
20260507003558 15 234 8.0 37.0 0.00 0.00 0.00 58 1016.6
20260507003058 15 203 6.4 37.0 0.00 0.00 0.00 56 1016.5
20260507002559 16 228 8.0 19.3 0.00 0.00 0.00 55 1016.4
20260507002102 16 254 6.4 24.1 0.00 0.00 0.00 54 1016.3
20260507001601 17 293 4.8 24.1 0.00 0.00 0.00 53 1016.3
20260507001058 17 242 6.4 17.7 0.00 0.00 0.00 51 1016.2
20260507000558 17 245 6.4 17.7 0.00 0.00 0.00 51 1016.2
20260507000056 17 264 8.0 17.7 0.00 0.00 0.00 50 1016.2
20260506235559 17 212 6.4 16.1 0.00 0.00 0.00 50 1016.2
20260506235058 17 180 8.0 32.2 0.00 0.00 0.00 50 1016.2
20260506234602 17 277 6.4 32.2 0.00 0.00 0.00 49 1016.0
20260506234058 17 280 6.4 24.1 0.00 0.00 0.00 50 1016.0
20260506233601 18 273 4.8 22.5 0.00 0.00 0.00 49 1015.9
20260506233102 18 233 4.8 20.9 0.00 0.00 0.00 47 1016.1
20260506232559 18 212 4.8 20.9 0.00 0.00 0.00 47 1015.9
20260506232059 18 228 6.4 20.9 0.00 0.00 0.00 47 1016.0
20260506231600 18 228 4.8 17.7 0.00 0.00 0.00 47 1015.9
20260506231101 18 241 4.8 17.7 0.00 0.00 0.00 47 1015.8
20260506230558 18 219 4.8 12.9 0.00 0.00 0.00 45 1015.9
20260506230059 18 243 4.8 19.3 0.00 0.00 0.00 45 1015.9
20260506225600 18 51 4.8 22.5 0.00 0.00 0.00 43 1015.8
20260506225100 19 163 6.4 37.0 0.00 0.00 0.00 44 1016.0
20260506224558 19 219 6.4 37.0 0.00 0.00 0.00 42 1015.9
20260506224058 20 259 6.4 16.1 0.00 0.00 0.00 41 1015.9
20260506223558 20 265 3.2 14.5 0.00 0.00 0.00 41 1015.9
20260506223059 20 280 4.8 11.3 0.00 0.00 0.00 41 1016.1
20260506222601 20 225 4.8 19.3 0.00 0.00 0.00 39 1016.1
20260506222059 21 353 4.8 19.3 0.00 0.00 0.00 40 1016.3
20260506221557 21 226 1.6 12.9 0.00 0.00 0.00 39 1016.1
20260506221058 21 261 3.2 12.9 0.00 0.00 0.00 39 1016.3
20260506220559 21 237 6.4 14.5 0.00 0.00 0.00 39 1016.3
20260506220059 22 220 3.2 16.1 0.00 0.00 0.00 39 1016.2
20260506215559 21 227 3.2 22.5 0.00 0.00 0.00 39 1016.3
20260506215059 21 250 3.2 22.5 0.00 0.00 0.00 40 1016.3
20260506214558 21 270 4.8 20.9 0.00 0.00 0.00 37 1016.4
20260506214059 22 306 3.2 20.9 0.00 0.00 0.00 38 1016.3
20260506213602 21 226 4.8 17.7 0.00 0.00 0.00 38 1016.4
20260506213131 21 297 3.2 11.3 0.00 0.00 0.00 38 1016.3
20260506212558 21 231 4.8 11.3 0.00 0.00 0.00 38 1016.5
20260506212059 21 276 3.2 12.9 0.00 0.00 0.00 39 1016.5
20260506211620 22 230 3.2 14.5 0.00 0.00 0.00 40 1016.5
20260506211058 21 247 1.6 14.5 0.00 0.00 0.00 41 1016.6
20260506210558 21 191 3.2 14.5 0.00 0.00 0.00 39 1016.6
20260506210103 21 232 1.6 17.7 0.00 0.00 0.00 38 1016.6
20260506205559 20 212 3.2 17.7 0.00 0.00 0.00 40 1016.7
20260506205059 20 231 4.8 16.1 0.00 0.00 0.00 42 1016.7
20260506204600 20 221 3.2 16.1 0.00 0.00 0.00 43 1016.7
20260506204058 20 249 4.8 16.1 0.00 0.00 0.00 41 1016.7
20260506203558 20 215 3.2 19.3 0.00 0.00 0.00 43 1016.7
20260506203058 19 268 3.2 19.3 0.00 0.00 0.00 45 1016.6
20260506202601 19 228 3.2 19.3 0.00 0.00 0.00 46 1016.7
20260506202101 19 0 6.4 19.3 0.00 0.00 0.00 45 1016.7
20260506201609 19 146 4.8 24.1 0.00 0.00 0.00 47 1016.6
20260506201101 18 230 6.4 24.1 0.00 0.00 0.00 48 1016.7
20260506200558 20 243 4.8 14.5 0.00 0.00 0.00 47 1016.4
20260506195559 20 242 6.4 19.3 0.00 0.00 0.00 49 1016.2
20260506195101 20 216 4.8 16.1 0.00 0.00 0.00 48 1016.1
20260506194628 20 218 6.4 16.1 0.00 0.00 0.00 48 1016.1
20260506194058 20 112 4.8 17.7 0.00 0.00 0.00 47 1016.1
20260506193559 20 267 6.4 17.7 0.00 0.00 0.00 47 1016.1
20260506193058 20 293 4.8 16.1 0.00 0.00 0.00 47 1016.1
20260506192559 20 185 6.4 16.1 0.00 0.00 0.00 46 1016.0
20260506192058 21 228 4.8 11.3 0.00 0.00 0.00 46 1016.0
20260506191600 20 93 3.2 12.9 0.00 0.00 0.00 45 1016.0
20260506191059 21 237 4.8 12.9 0.00 0.00 0.00 45 1016.1
20260506190558 20 222 3.2 14.5 0.00 0.00 0.00 45 1016.1
20260506190057 20 46 4.8 14.5 0.00 0.00 0.00 46 1016.1
20260506185558 20 202 4.8 22.5 0.00 0.00 0.00 46 1016.1
20260506185101 20 207 6.4 22.5 0.00 0.00 0.00 46 1016.2
20260506184607 20 236 3.2 17.7 0.00 0.00 0.00 47 1016.3
20260506184058 21 249 3.2 22.5 0.00 0.00 0.00 45 1016.3
20260506183558 21 253 4.8 22.5 0.00 0.00 0.00 44 1016.3
20260506183103 21 167 6.4 22.5 0.00 0.00 0.00 43 1016.3
20260506182558 21 280 4.8 16.1 0.00 0.00 0.00 42 1016.3
20260506182059 21 230 4.8 16.1 0.00 0.00 0.00 41 1016.3
20260506181605 21 280 3.2 12.9 0.00 0.00 0.00 41 1016.4
20260506181059 21 209 3.2 12.9 0.00 0.00 0.00 41 1016.3
20260506180559 21 254 3.2 16.1 0.00 0.00 0.00 40 1016.3
20260506175558 20 243 4.8 19.3 0.00 0.00 0.00 44 1016.3
20260506175058 20 248 4.8 19.3 0.00 0.00 0.00 44 1016.3
20260506174558 20 228 4.8 22.5 0.00 0.00 0.00 45 1016.4
20260506174058 20 251 4.8 22.5 0.00 0.00 0.00 47 1016.5
20260506173557 19 228 3.2 17.7 0.00 0.00 0.00 48 1016.4
20260506173109 19 99 4.8 17.7 0.00 0.00 0.00 49 1016.4
20260506172601 19 228 4.8 14.5 0.00 0.00 0.00 52 1016.4
20260506172058 18 236 4.8 14.5 0.00 0.00 0.00 53 1016.4
20260506171559 18 253 3.2 8.0 0.00 0.00 0.00 55 1016.4
20260506171116 18 235 3.2 8.0 0.00 0.00 0.00 55 1016.3
20260506170558 18 237 3.2 8.0 0.00 0.00 0.00 57 1016.3
20260506170114 17 255 1.6 8.0 0.00 0.00 0.00 57 1016.4
20260506165558 17 239 3.2 8.0 0.00 0.00 0.00 57 1016.3
20260506165058 17 233 1.6 6.4 0.00 0.00 0.00 59 1016.3
20260506164556 16 233 1.6 6.4 0.00 0.00 0.00 61 1016.4
20260506164058 16 245 1.6 8.0 0.00 0.00 0.00 61 1016.3
20260506163603 16 246 3.2 11.3 0.00 0.00 0.00 61 1016.5
20260506163110 16 251 3.2 11.3 0.00 0.00 0.00 62 1016.4
20260506162600 15 277 3.2 12.9 0.00 0.00 0.00 63 1016.4
20260506162059 15 264 3.2 14.5 0.00 0.00 0.00 65 1016.6
20260506161557 15 209 3.2 14.5 0.00 0.00 0.00 65 1016.7
20260506161058 15 212 3.2 16.1 0.00 0.00 0.00 66 1016.6
20260506160558 14 280 3.2 16.1 0.00 0.00 0.00 67 1016.7
20260506160056 14 211 3.2 19.3 0.00 0.00 0.00 67 1016.5
20260506155559 14 215 3.2 19.3 0.00 0.00 0.00 67 1016.4
20260506155059 14 251 4.8 19.3 0.00 0.00 0.00 68 1016.1
20260506154555 13 219 3.2 16.1 0.00 0.00 0.00 69 1016.2